Regional Weather Roundup
Issued by NWS Albany, NY

Home | Current Version | Previous Version | Text Only | Print | Product List | Glossary On
Versions: 1 2 3 4 5 6 7 8 9 10 11 12 13 14 15 16 17 18 19 20 21 22 23 24 25 26 27 28 29 30 31 32 33 34 35 36 37 38 39 40 41 42 43 44 45 46 47 48 49 50
000
ASUS41 KALY 182210
RWRALY

NEW YORK STATE HOURLY WEATHER ROUNDUP
NATIONAL WEATHER SERVICE ALBANY NY
600 PM EDT THU SEP 18 2014

NOTE: "FAIR" INDICATES FEW OR NO CLOUDS BELOW 12,000 FEET WITH NO
SIGNIFICANT WEATHER AND/OR NO OBSTRUCTIONS TO VISIBILITY.

NYZ032-033-038>043-046>054-057>066-NYZ062>081-182300-
EAST


CITY           SKY/WX    TMP DP  RH WIND       PRES   REMARKS
ALBANY         MOSUNNY   59  49  69 N12       30.06R
GLENS FALLS    MOCLDY    54  44  69 NE10      30.08R
POUGHKEEPSIE   PTSUNNY   73  47  39 N3        29.99S
NEWBURGH       MOSUNNY   72  48  43 N6        30.02R
MONTGOMERY     SUNNY     70  47  43 W5        30.00S
WHITE PLAINS   MOSUNNY   71  46  40 N5        30.00R
ISLIP          PTCLDY    73  44  35 NW5       29.99R
NEW YORK CITY  MOSUNNY   75  44  33 NW8       29.98S
CENTRAL PARK   MOSUNNY   74  41  30 VRB5      30.02R
$$

NYZ005>009-017-018-044>046-055-056-182300-
CENTRAL


CITY           SKY/WX    TMP DP  RH WIND       PRES   REMARKS
FULTON         CLOUDY    55  43  63 N9        30.13R
SYRACUSE       PTSUNNY   57  47  69 NW9       30.12R
ROME           PTSUNNY   56  48  74 N8        30.10R
ELMIRA         CLOUDY    57  51  80 NE14      30.10R
BINGHAMTON     PTSUNNY   62  50  64 NW13      30.08R
MONTICELLO     MOSUNNY   63  45  51 NW8       30.06R
$$

NYZ026>034-041>043-182300-
NORTH


CITY           SKY/WX    TMP DP  RH WIND       PRES   REMARKS
WATERTOWN      MOSUNNY   57  37  47 N7        30.14R
FORT DRUM      NOT AVBL
MASSENA        MOSUNNY   52  35  52 NW5       30.16R
SARANAC LAKE   PTSUNNY   49  35  58 VRB3      30.10R
PLATTSBURGH    CLEAR     51  36  56 NW8       30.12R
$$

NYZ001>004-010>016-019>021-182300-
WEST


CITY           SKY/WX    TMP DP  RH WIND       PRES   REMARKS
NIAGARA FALLS  PTSUNNY   55  46  71 NE7       30.15S
BUFFALO        PTSUNNY   54  47  77 NE8       30.15F
DUNKIRK        PTSUNNY   58  50  75 NE8       30.14R
JAMESTOWN      SUNNY     55  48  76 N8        30.13S
WELLSVILLE     PTSUNNY   57  49  74 N8        30.13R
ROCHESTER      CLOUDY    53  45  74 N5        30.16R
PENN YAN       CLOUDY    54  47  77 N3        30.14R
$$

             KEY
       WCI = WIND CHILL INDEX
       VSB = VISIBILITY
       HX  = HEAT INDEX
$$



USA.gov is the U.S. government's official web portal to all federal, state and local government web resources and services.